Regional Weather Roundup
Issued by NWS Charleston, SC

Current Version | Previous Version | Graphics & Text | Print | Product List | Glossary On
Versions: 1 2 3 4 5 6 7 8 9 10 11 12 13 14 15 16 17 18 19 20 21 22 23 24 25 26 27 28 29 30 31 32 33 34 35 36 37 38 39 40 41 42 43 44 45 46 47 48 49 50
000 ASUS42 KCHS 271512 RWRCHS REGIONAL WEATHER ROUNDUP NATIONAL WEATHER SERVICE CHARLESTON SC 1100 AM EDT THU APR 27 2017 NOTE: "FAIR" INDICATES FEW OR NO CLOUDS BELOW 12,000 FEET WITH NO SIGNIFICANT WEATHER AND/OR OBSTRUCTIONS TO VISIBILITY. NOT ALL STATIONS ARE QUALITY CONTROLLED. USE DATA WITH CAUTION... ESPECIALLY DEWPOINT OBSERVATIONS. SCZ027-030-031-034>040-042>050-271600- ...SOUTHEAST SOUTH CAROLINA... CITY SKY/WX TMP DP RH WIND PRES REMARKS N CHARLESTON PTSUNNY 79 61 53 S10 29.94F WATERFRONT PRK N/A 76 64 66 SW7 29.94R JOHNS ISLAND PTSUNNY 79 64 61 S12G18 29.96S PINOPOLIS NOT AVBL MONCKS CORNER PTSUNNY 77 59 53 SW9 29.94F SUMMERVILLE PTSUNNY 75 61 60 S7 29.94F BEAUFORT MCAS NOT AVBL BEAUFORT ARPT PTSUNNY 77 64 65 S13 29.93F HAZE HILTON HEAD IS SUNNY 77 68 73 S9 29.95S WALTERBORO PTSUNNY 75 61 60 S9 29.94F ALLENDALE CLOUDY 73 61 64 S8 29.90F ...SOUTHERN MIDLANDS AND PEE DEE... CITY SKY/WX TMP DP RH WIND PRES REMARKS GEORGETOWN FAIR 79 59 50 SW12G17 29.96S KINGSTREE FAIR 77 57 50 S12 29.92F ORANGEBURG PTSUNNY 75 64 68 S15 29.91F BARNWELL CLOUDY 75 66 73 S13 29.90F AIKEN CLOUDY 70 63 78 SE9G17 29.91S MANNING FAIR 73 61 64 SW12G17 29.92F COLUMBIA CLOUDY 76 60 57 S8 29.89R SUMTER PTSUNNY 75 59 56 S12 29.89F FLORENCE SUNNY 77 59 53 S10 29.92F MYRTLE BEACH MOSUNNY 79 61 53 SW9 29.95F N MYRTLE BEACH SUNNY 76 67 73 S12 29.95F $$ GAZ063-065-086>088-099>101-113>116-118-119-134>141-150-271600- ...SOUTHEAST GEORGIA... CITY SKY/WX TMP DP RH WIND PRES REMARKS SAVANNAH ARPT CLOUDY 80 63 55 S12 29.93S HUNTER AAF MOSUNNY 79 70 75 S9 29.90F FORT STEWART PTSUNNY 78 63 58 S8 29.90S STATESBORO MOSUNNY 77 62 59 S13 29.90F SYLVANIA PTSUNNY N/A N/A N/A S9 29.91F CLAXTON FAIR 76 67 73 SE7 29.90F ...CSRA...CENTRAL AND FAR SOUTHEAST GEORGIA... CITY SKY/WX TMP DP RH WIND PRES REMARKS THOMSON CLOUDY 74 66 76 SW8 29.93R AUGUSTA-BUSH CLOUDY 75 67 76 S9 29.88R AUGUSTA-DANIEL CLOUDY 72 62 71 S6 29.89R SWAINSBORO CLOUDY 73 64 73 S13G18 29.90R VIDALIA SUNNY 79 64 61 S17 29.89F EASTMAN PTSUNNY 79 60 51 SW13G23 29.89S HAZLEHURST FAIR 79 70 73 SW16G25 29.89F ALMA MOSUNNY 80 65 59 S10 29.91F WAYCROSS MOSUNNY 83 69 62 SW13 29.92S JESUP FAIR 82 61 47 SW13 29.92F BAXLEY PTSUNNY 79 70 73 S9 29.91S BRUNSWICK MOSUNNY 82 63 51 S15G22 29.94S SAINT SIMONS SUNNY 79 67 66 S13G22 29.94S $$ SCZ027-028-034-036>038-045-046-048>050-GAZ119-141-271600- ...LAKE AND SUPPLEMENTAL COASTAL OBSERVATIONS... STATION/POSITION TIME TEMP WIND PRES WAVE SWELL AIR SEA DIR/SP/G HT/PER HT/PER/DIR (UTC) (F) (DEG/KT/KT) (MB) (FT/S) (FT/S/D) WINYAH BAY 1345 74 240/ 10 1014.0 LAKE MURRAY 1420 71 180/ 6/ 14 1011.9 ACE BASIN NERRS NOT AVBL FORT PULASKI 1448 76 74 180/ 8/ 14 1013.6F SAPELO ISLAND 1400 78 190/ 12 1014.0 $$ ANZ835-935-AMZ111-154-330-350-352-354-370-450-454-472-271600- ...C-MAN AND BUOY OBSERVATIONS... STATION/POSITION TIME TEMP WIND PRES WAVE SWELL AIR SEA DIR/SP/G HT/PER HT/PER/DIR (UTC) (F) (DEG/KT/KT) (MB) (FT/S) (FT/S/D) BUOY 41004 1450 74 73 210/ 8/ 10 1015.0R 4/ 8 3/140/ 8 BUOY 41008 1350 73 72 190/ 6/ 8 1013.7 3/ 5 3/160/ 5 FOLLY BEACH CMAN 1400 73 200/ 10/ 11 1014.9S CAPERS NEARSHORE 1408 74 72 210/ 10/ 16 1014.1R FRIPP NEARSHORE 1408 72 71 210/ 6/ 8 1013.9R STATION/POSITION TIME TEMP WIND PRES WAVE SWELL AIR SEA DIR/SP/G HT/PER HT/PER/DIR (UTC) (F) (DEG/KT/KT) (MB) (FT/S) (FT/S/D) 5E ST. MARYS GA 1430 73 N/A 3/ 9 FRYING PAN BUOY 1450 74 73 230/ 8/ 10 1015.0S 4/ 9 3/120/ 9 BUOY 41025 1450 77 77 210/ 16/ 17 1014.9R 5/ 8 3/140/ 8 CAPE LOOKOUT NC 1400 74 240/ 5/ 7 1014.0R BUOY 41002 1450 74 74 180/ 14/ 16 1017.7R 5/ 8 3/110/ 8 BUOY 41010 1450 77 78 170/ 14/ 17 1016.3R 5/ 8 3/110/ 8 ST AUGUSTINE FL 1500 74 74 140/ 11/ 12 1015.4F $$

USA.gov is the U.S. government's official web portal to all federal, state and local government web resources and services.